Clarksburg, WV

6:14 PM EDT on July 20, 2019 (GMT -0400)
Benedum

Weather History for KCKB - May, 2019

Change the Weather History Date:

Wednesday, May 8, 2019

  Actual Average Record
Temperature  
Mean Temperature 71 °F -  
Max Temperature 84 °F 71 °F - (0)
Min Temperature 57 °F 48 °F - (0)
Cooling Degree Days 6    
Month to date cooling degree days 29  
Year to date cooling degree days 54  
Growing Degree Days 20 (Base 50)    
Moisture  
Dew Point 53 °F    
Average Humidity 54    
Maximum Humidity 80    
Minimum Humidity 28    
Precipitation  
Precipitation 0.00 in - - ()
Month to date precipitation 0.50  
Year to date precipitation 14.63  
Sea Level Pressure  
Sea Level Pressure 30.06 in    
Wind  
Wind Speed 4 mph (NE)    
Max Wind Speed 10 mph    
Max Gust Speed 14 mph    
Visibility 10 miles    
Events      
T = Trace of Precipitation, MM = Missing Value Source: NWS Daily Summary

Daily Weather History Graph

Daily Weather History Graph

Search for Another Location

Airport or City:

Astronomy

May. 08, 2019 Rise Set
Actual Time 6:14 AM EDT 8:20 PM EDT
Civil Twilight 5:45 AM EDT 8:50 PM EDT
Nautical Twilight 5:08 AM EDT 9:26 PM EDT
Astronomical Twilight 4:29 AM EDT 10:06 PM EDT
Moon 9:10 AM EDT (5/8) No Moon Set
Length of Visible Light 15h 05m
Length of Day
14h 06m
Waxing Crescent, 15% of the Moon is Illuminated
May 8
Waxing Crescent
May 11
First Quarter
May 18
Full
May 26
Last Quarter
Jun 3
New

Hourly Weather History & Observations

Time (EDT) Temp. Heat Index Dew Point Humidity Pressure Visibility Wind Dir Wind Speed Gust Speed Precip Events Conditions
12:53 AM 63.0 °F - 53.1 °F 70% 30.10 in 10.0 mi NNE 4.6 mph - N/A   Clear
1:53 AM 64.0 °F - 53.1 °F 67% 30.09 in 10.0 mi Calm Calm - 0.00 in   Partly Cloudy
2:53 AM 60.1 °F - 53.1 °F 78% 30.08 in 10.0 mi NNE 4.6 mph - N/A   Partly Cloudy
3:53 AM 59.0 °F - 52.0 °F 78% 30.08 in 10.0 mi Calm Calm - N/A   Mostly Cloudy
4:53 AM 57.9 °F - 52.0 °F 81% 30.08 in 10.0 mi North 4.6 mph - N/A   Overcast
5:53 AM 57.9 °F - 52.0 °F 81% 30.09 in 10.0 mi NNE 5.8 mph - N/A   Scattered Clouds
6:53 AM 57.0 °F - 51.1 °F 81% 30.11 in 10.0 mi NNE 4.6 mph - N/A   Mostly Cloudy
7:53 AM 60.1 °F - 53.1 °F 78% 30.13 in 10.0 mi NE 3.5 mph - N/A   Clear
8:53 AM 63.0 °F - 54.0 °F 72% 30.13 in 10.0 mi Variable 3.5 mph - N/A   Clear
9:53 AM 68.0 °F - 55.9 °F 65% 30.12 in 10.0 mi Calm Calm - N/A   Clear
10:53 AM 73.0 °F - 55.0 °F 53% 30.12 in 10.0 mi Calm Calm - N/A   Clear
11:53 AM 75.9 °F - 55.0 °F 48% 30.10 in 10.0 mi Calm Calm - N/A   Clear
12:53 PM 80.1 °F 79.9 °F 53.1 °F 39% 30.08 in 10.0 mi NW 4.6 mph - N/A   Clear
1:53 PM 80.1 °F - 51.1 °F 36% 30.06 in 10.0 mi SW 3.5 mph - N/A   Clear
2:53 PM 81.0 °F - 52.0 °F 36% 30.04 in 10.0 mi Calm Calm - N/A   Clear
3:53 PM 82.0 °F - 51.1 °F 34% 30.01 in 10.0 mi Variable 4.6 mph - N/A   Clear
4:53 PM 82.9 °F - 48.9 °F 31% 30.00 in 10.0 mi NW 3.5 mph - N/A   Clear
5:53 PM 82.9 °F - 46.9 °F 28% 30.00 in 10.0 mi Calm Calm - N/A   Clear
6:53 PM 79.0 °F - 54.0 °F 42% 29.99 in 10.0 mi NNE 3.5 mph - N/A   Clear
7:53 PM 79.0 °F - 52.0 °F 39% 29.99 in 10.0 mi NE 3.5 mph - N/A   Mostly Cloudy
8:53 PM 73.0 °F - 54.0 °F 51% 30.01 in 10.0 mi East 4.6 mph - N/A   Clear
9:53 PM 72.0 °F - 55.9 °F 57% 30.01 in 10.0 mi East 10.4 mph - N/A   Clear
10:53 PM 71.1 °F - 55.9 °F 59% 30.01 in 10.0 mi ESE 6.9 mph - N/A   Clear
11:53 PM 69.1 °F - 55.9 °F 63% 30.02 in 10.0 mi ESE 6.9 mph - N/A   Clear